When you browse on this site, cookies collect data to enhance your experience and personalize the content and advertising you see.
Visit our Privacy Policy to learn more. By continuing to use the site, you agree to this use of cookies and data.

Hourly Weather Blazhi

Today, 14 July, Tuesday

Time Temperature Precipitation Wind Pressure Humidity
00:00 +11°C° 0 mm 1 mps 752 mmHg 89%
01:00 +11°C° 0 mm 1 mps 752 mmHg 91%
02:00 +10°C° 0 mm 1 mps 753 mmHg 93%
03:00 +10°C° 0 mm 1 mps 753 mmHg 92%
04:00 +10°C° 0 mm 1 mps 752 mmHg 91%
05:00 +11°C° 0 mm 1 mps 752 mmHg 90%
06:00 +13°C° 0 mm 2 mps 752 mmHg 82%
07:00 +15°C° 0 mm 2 mps 752 mmHg 73%
08:00 +17°C° 0 mm 2 mps 753 mmHg 64%
09:00 +18°C° 0 mm 2 mps 752 mmHg 58%
10:00 +19°C° 0 mm 2 mps 752 mmHg 52%
11:00 +21°C° 0 mm 2 mps 752 mmHg 45%
12:00 +21°C° 0 mm 2 mps 752 mmHg 44%
13:00 +23°C° 0 mm 2 mps 752 mmHg 43%
14:00 +23°C° 0 mm 2 mps 752 mmHg 42%
15:00 +23°C° 0 mm 2 mps 751 mmHg 45%
16:00 +21°C° 0 mm 2 mps 751 mmHg 47%
17:00 +21°C° 0 mm 2 mps 751 mmHg 50%
18:00 +20°C° 0 mm 2 mps 751 mmHg 59%
19:00 +18°C° 0 mm 2 mps 751 mmHg 68%
20:00 +16°C° 0 mm 2 mps 751 mmHg 77%
21:00 +15°C° 0 mm 2 mps 751 mmHg 78%
22:00 +14°C° 0 mm 2 mps 751 mmHg 79%
23:00 +13°C° 0 mm 2 mps 751 mmHg 80%

Tomorrow, 15 July, Wednesday

Time Temperature Precipitation Wind Pressure Humidity
00:00 +12°C° 0 mm 2 mps 751 mmHg 79%
01:00 +12°C° 0 mm 2 mps 751 mmHg 77%
02:00 +10°C° 0 mm 2 mps 751 mmHg 76%
03:00 +10°C° 0 mm 2 mps 751 mmHg 78%
04:00 +10°C° 0 mm 2 mps 751 mmHg 79%
05:00 +10°C° 0 mm 2 mps 751 mmHg 81%
06:00 +13°C° 0 mm 2 mps 751 mmHg 76%
07:00 +13°C° 0 mm 3 mps 751 mmHg 71%
08:00 +16°C° 0 mm 3 mps 751 mmHg 66%
09:00 +17°C° 0 mm 3 mps 751 mmHg 61%
10:00 +19°C° 0 mm 3 mps 751 mmHg 56%
11:00 +20°C° 0 mm 4 mps 751 mmHg 52%
12:00 +21°C° 0 mm 4 mps 751 mmHg 51%
13:00 +21°C° 0 mm 4 mps 751 mmHg 50%
14:00 +22°C° 0 mm 4 mps 751 mmHg 48%
15:00 +22°C° 0 mm 4 mps 751 mmHg 50%
16:00 +22°C° 0 mm 3 mps 750 mmHg 51%
17:00 +21°C° 0 mm 3 mps 750 mmHg 52%
18:00 +20°C° 0 mm 3 mps 750 mmHg 59%
19:00 +18°C° 0 mm 2 mps 750 mmHg 66%
20:00 +17°C° 0 mm 2 mps 750 mmHg 73%
21:00 +16°C° 0 mm 2 mps 750 mmHg 75%
22:00 +15°C° 0 mm 2 mps 750 mmHg 78%
23:00 +14°C° 0 mm 2 mps 751 mmHg 80%

Day after tomorrow, 16 July, Thursday

Time Temperature Precipitation Wind Pressure Humidity
00:00 +13°C° 0 mm 2 mps 751 mmHg 82%
01:00 +13°C° 0 mm 1 mps 751 mmHg 83%
02:00 +12°C° 0 mm 1 mps 751 mmHg 84%
03:00 +12°C° 0 mm 1 mps 751 mmHg 84%
04:00 +12°C° 0 mm 1 mps 751 mmHg 84%
05:00 +12°C° 0 mm 1 mps 751 mmHg 85%
06:00 +14°C° 0 mm 2 mps 750 mmHg 78%
07:00 +16°C° 0 mm 2 mps 750 mmHg 72%
08:00 +18°C° 0 mm 2 mps 750 mmHg 66%
09:00 +19°C° 0 mm 2 mps 750 mmHg 61%
10:00 +21°C° 0 mm 2 mps 750 mmHg 56%
11:00 +23°C° 0 mm 2 mps 750 mmHg 51%
12:00 +23°C° 0 mm 2 mps 750 mmHg 50%
13:00 +24°C° 0 mm 2 mps 750 mmHg 49%
14:00 +24°C° 0 mm 3 mps 750 mmHg 48%
15:00 +24°C° 0 mm 3 mps 749 mmHg 49%
16:00 +24°C° 0 mm 3 mps 749 mmHg 51%
17:00 +24°C° 0 mm 3 mps 749 mmHg 52%
18:00 +21°C° 0 mm 2 mps 749 mmHg 60%
19:00 +19°C° 0 mm 2 mps 749 mmHg 68%
20:00 +18°C° 0 mm 2 mps 750 mmHg 75%
21:00 +16°C° 0 mm 2 mps 750 mmHg 78%
22:00 +15°C° 0 mm 2 mps 750 mmHg 81%
23:00 +14°C° 0 mm 2 mps 750 mmHg 83%

17 July, Friday

Time Temperature Precipitation Wind Pressure Humidity
00:00 +13°C° 0 mm 1 mps 750 mmHg 86%
01:00 +12°C° 0 mm 1 mps 751 mmHg 89%
02:00 +12°C° 0 mm 1 mps 751 mmHg 92%
03:00 +12°C° 0 mm 1 mps 751 mmHg 91%
04:00 +12°C° 0 mm 1 mps 751 mmHg 90%
05:00 +12°C° 0 mm 1 mps 751 mmHg 90%
06:00 +15°C° 0 mm 1 mps 751 mmHg 80%
07:00 +18°C° 0 mm 1 mps 751 mmHg 70%
08:00 +20°C° 0 mm 1 mps 752 mmHg 61%
09:00 +21°C° 0 mm 1 mps 752 mmHg 54%
10:00 +23°C° 0 mm 2 mps 752 mmHg 47%
11:00 +24°C° 0 mm 2 mps 752 mmHg 40%
12:00 +24°C° 0 mm 2 mps 752 mmHg 38%
13:00 +25°C° 0 mm 2 mps 752 mmHg 37%
14:00 +26°C° 0 mm 2 mps 752 mmHg 35%
15:00 +25°C° 0 mm 2 mps 752 mmHg 38%
16:00 +25°C° 0 mm 2 mps 752 mmHg 41%
17:00 +25°C° 0 mm 2 mps 752 mmHg 43%
18:00 +23°C° 0 mm 2 mps 752 mmHg 52%
19:00 +20°C° 0 mm 2 mps 752 mmHg 61%
20:00 +18°C° 0 mm 2 mps 752 mmHg 70%
21:00 +16°C° 0 mm 1 mps 752 mmHg 72%
22:00 +15°C° 0 mm 1 mps 753 mmHg 74%
23:00 +14°C° 0 mm 1 mps 753 mmHg 76%

18 July, Saturday

Time Temperature Precipitation Wind Pressure Humidity
00:00 +13°C° 0 mm 1 mps 753 mmHg 78%
01:00 +13°C° 0 mm 1 mps 754 mmHg 79%
02:00 +12°C° 0 mm 1 mps 754 mmHg 81%
03:00 +12°C° 0 mm 1 mps 754 mmHg 81%
04:00 +13°C° 0 mm 1 mps 754 mmHg 81%
05:00 +13°C° 0 mm 1 mps 754 mmHg 82%
06:00 +15°C° 0 mm 1 mps 755 mmHg 73%
07:00 +18°C° 0 mm 1 mps 755 mmHg 65%
08:00 +21°C° 0 mm 1 mps 755 mmHg 57%
09:00 +22°C° 0 mm 1 mps 755 mmHg 51%
10:00 +24°C° 0 mm 1 mps 755 mmHg 45%
11:00 +25°C° 0 mm 1 mps 755 mmHg 39%
12:00 +26°C° 0 mm 1 mps 755 mmHg 37%
13:00 +26°C° 0 mm 1 mps 755 mmHg 35%
14:00 +27°C° 0 mm 1 mps 755 mmHg 33%
15:00 +26°C° 0 mm 1 mps 754 mmHg 36%
16:00 +26°C° 0 mm 1 mps 754 mmHg 38%
17:00 +26°C° 0 mm 1 mps 754 mmHg 40%
18:00 +24°C° 0 mm 1 mps 754 mmHg 49%
19:00 +22°C° 0 mm 1 mps 754 mmHg 58%
20:00 +19°C° 0 mm 1 mps 754 mmHg 67%
21:00 +18°C° 0 mm 1 mps 755 mmHg 69%
22:00 +16°C° 0 mm 1 mps 755 mmHg 70%
23:00 +14°C° 0 mm 0 mps 755 mmHg 72%

19 July, Sunday

Time Temperature Precipitation Wind Pressure Humidity
00:00 +13°C° 0 mm 0 mps 755 mmHg 72%
01:00 +13°C° 0 mm 0 mps 755 mmHg 72%
02:00 +13°C° 0 mm 0 mps 755 mmHg 72%
03:00 +13°C° 0 mm 0 mps 755 mmHg 72%
04:00 +13°C° 0 mm 0 mps 755 mmHg 73%
05:00 +13°C° 0 mm 0 mps 755 mmHg 74%
06:00 +16°C° 0 mm 0 mps 755 mmHg 68%
07:00 +18°C° 0 mm 0 mps 755 mmHg 62%
08:00 +20°C° 0 mm 0 mps 755 mmHg 57%
09:00 +22°C° 0 mm 0 mps 755 mmHg 51%
10:00 +23°C° 0 mm 0 mps 755 mmHg 46%
11:00 +27°C° 0 mm 1 mps 755 mmHg 40%
12:00 +28°C° 0 mm 1 mps 755 mmHg 38%
13:00 +28°C° 0 mm 1 mps 755 mmHg 36%
14:00 +28°C° 0 mm 1 mps 755 mmHg 35%
15:00 +28°C° 0 mm 2 mps 754 mmHg 37%
16:00 +27°C° 0 mm 2 mps 754 mmHg 39%
17:00 +27°C° 0 mm 2 mps 754 mmHg 40%
18:00 +25°C° 0 mm 2 mps 754 mmHg 48%
19:00 +23°C° 0 mm 2 mps 754 mmHg 56%
20:00 +20°C° 0 mm 1 mps 754 mmHg 64%
21:00 +19°C° 0 mm 1 mps 754 mmHg 64%
22:00 +18°C° 0 mm 1 mps 754 mmHg 64%
23:00 +16°C° 0 mm 1 mps 754 mmHg 63%
Show more